******** Week 148 almanac for PRN-1 ******** ID: 1 Health: 0 Eccentricity: 0.01135826111 Time of Applicability(s): 233472 Orbital Inclination(rad): 0.9866396649 Rate of Right Ascen(r/s): -7.691748963e-09 SQRT(A) (m 1/2): 5153.62793 Right Ascen at Week(rad): -1.785950241 Argument of Perigee(rad): 0.8815569629 Mean Anom(rad): -2.979250974 Af0(s): 0.0003451828369 Af1(s/s): -1.091394e-11 week: 148 ******** Week 148 almanac for PRN-2 ******** ID: 2 Health: 0 Eccentricity: 0.02067422867 Time of Applicability(s): 233472 Orbital Inclination(rad): 0.9649961547 Rate of Right Ascen(r/s): -7.851755628e-09 SQRT(A) (m 1/2): 5153.642578 Right Ascen at Week(rad): -1.875102013 Argument of Perigee(rad): -1.445645441 Mean Anom(rad): -2.830228635 Af0(s): -0.0005140058838 Af1(s/s): 0 week: 148 ******** Week 148 almanac for PRN-3 ******** ID: 3 Health: 0 Eccentricity: 0.003881931305 Time of Applicability(s): 233472 Orbital Inclination(rad): 0.9725402243 Rate of Right Ascen(r/s): -7.771752296e-09 SQRT(A) (m 1/2): 5153.634766 Right Ascen at Week(rad): -0.750459654 Argument of Perigee(rad): 0.9620475114 Mean Anom(rad): 2.146366817 Af0(s): -8.893356934e-05 Af1(s/s): -1.818989e-11 week: 148 ******** Week 148 almanac for PRN-4 ******** ID: 4 Health: 0 Eccentricity: 0.00169467926 Time of Applicability(s): 233472 Orbital Inclination(rad): 0.9614068793 Rate of Right Ascen(r/s): -7.840326581e-09 SQRT(A) (m 1/2): 5153.599609 Right Ascen at Week(rad): 0.3305144368 Argument of Perigee(rad): -3.068399001 Mean Anom(rad): -1.191532311 Af0(s): -0.0001507348633 Af1(s/s): 3.637979e-12 week: 148 ******** Week 148 almanac for PRN-5 ******** ID: 5 Health: 0 Eccentricity: 0.005877017975 Time of Applicability(s): 233472 Orbital Inclination(rad): 0.9595133718 Rate of Right Ascen(r/s): -7.920329913e-09 SQRT(A) (m 1/2): 5153.61084 Right Ascen at Week(rad): -0.790769718 Argument of Perigee(rad): 1.009595673 Mean Anom(rad): -0.3269457594 Af0(s): -5.577189941e-05 Af1(s/s): 0 week: 148 ******** Week 148 almanac for PRN-6 ******** ID: 6 Health: 0 Eccentricity: 0.002681255341 Time of Applicability(s): 233472 Orbital Inclination(rad): 0.9860224773 Rate of Right Ascen(r/s): -7.680319916e-09 SQRT(A) (m 1/2): 5153.623535 Right Ascen at Week(rad): -1.794222727 Argument of Perigee(rad): -0.967137811 Mean Anom(rad): -2.642445193 Af0(s): 0.0001545032349 Af1(s/s): 1.091394e-11 week: 148 ******** Week 148 almanac for PRN-7 ******** ID: 7 Health: 0 Eccentricity: 0.01551628113 Time of Applicability(s): 233472 Orbital Inclination(rad): 0.950680998 Rate of Right Ascen(r/s): -7.874613723e-09 SQRT(A) (m 1/2): 5153.641602 Right Ascen at Week(rad): 1.349483272 Argument of Perigee(rad): -2.292704689 Mean Anom(rad): 2.636064343 Af0(s): 0.0002441904785 Af1(s/s): 3.637979e-12 week: 148 ******** Week 148 almanac for PRN-8 ******** ID: 8 Health: 0 Eccentricity: 0.007260322571 Time of Applicability(s): 233472 Orbital Inclination(rad): 0.9650740521 Rate of Right Ascen(r/s): -8.023191341e-09 SQRT(A) (m 1/2): 5153.667969 Right Ascen at Week(rad): -2.865540154 Argument of Perigee(rad): 0.09861519073 Mean Anom(rad): -0.7072261882 Af0(s): -4.371311035e-05 Af1(s/s): 0 week: 148 ******** Week 148 almanac for PRN-9 ******** ID: 9 Health: 0 Eccentricity: 0.002269744873 Time of Applicability(s): 233472 Orbital Inclination(rad): 0.9544260683 Rate of Right Ascen(r/s): -7.931758961e-09 SQRT(A) (m 1/2): 5153.567871 Right Ascen at Week(rad): 0.2776280523 Argument of Perigee(rad): 1.871295149 Mean Anom(rad): -0.3546379326 Af0(s): -0.0002803668457 Af1(s/s): 0 week: 148 ******** Week 148 almanac for PRN-10 ******** ID: 10 Health: 0 Eccentricity: 0.00749206543 Time of Applicability(s): 233472 Orbital Inclination(rad): 0.9723604609 Rate of Right Ascen(r/s): -7.760323248e-09 SQRT(A) (m 1/2): 5153.630371 Right Ascen at Week(rad): -0.7532519784 Argument of Perigee(rad): -2.518789339 Mean Anom(rad): 1.276189625 Af0(s): -0.0002487125244 Af1(s/s): -1.091394e-11 week: 148 ******** Week 148 almanac for PRN-11 ******** ID: 11 Health: 255 Eccentricity: 0.0002765655518 Time of Applicability(s): 233472 Orbital Inclination(rad): 0.9617424376 Rate of Right Ascen(r/s): -7.908900866e-09 SQRT(A) (m 1/2): 5153.72168 Right Ascen at Week(rad): -1.742008208 Argument of Perigee(rad): 2.861162166 Mean Anom(rad): -0.8468585122 Af0(s): -7.536743164e-05 Af1(s/s): 1.455192e-11 week: 148 ******** Week 148 almanac for PRN-12 ******** ID: 12 Health: 0 Eccentricity: 0.008665561676 Time of Applicability(s): 233472 Orbital Inclination(rad): 0.970395048 Rate of Right Ascen(r/s): -7.851755628e-09 SQRT(A) (m 1/2): 5153.558105 Right Ascen at Week(rad): 2.462382963 Argument of Perigee(rad): 1.245160594 Mean Anom(rad): 1.979985703 Af0(s): -0.0001326466797 Af1(s/s): -7.275958e-12 week: 148 ******** Week 148 almanac for PRN-13 ******** ID: 13 Health: 0 Eccentricity: 0.005797386169 Time of Applicability(s): 233472 Orbital Inclination(rad): 0.9688251145 Rate of Right Ascen(r/s): -7.771752296e-09 SQRT(A) (m 1/2): 5153.621094 Right Ascen at Week(rad): 0.4303186874 Argument of Perigee(rad): 0.9615647719 Mean Anom(rad): -1.287985472 Af0(s): 0.0002042457397 Af1(s/s): 7.275958e-12 week: 148 ******** Week 148 almanac for PRN-14 ******** ID: 14 Health: 0 Eccentricity: 0.001417636871 Time of Applicability(s): 233472 Orbital Inclination(rad): 0.9537849123 Rate of Right Ascen(r/s): -8.000333246e-09 SQRT(A) (m 1/2): 5153.59668 Right Ascen at Week(rad): 2.431197763 Argument of Perigee(rad): 3.022823743 Mean Anom(rad): 2.040811636 Af0(s): -6.406231689e-05 Af1(s/s): -3.637979e-12 week: 148 ******** Week 148 almanac for PRN-15 ******** ID: 15 Health: 0 Eccentricity: 0.01392459869 Time of Applicability(s): 233472 Orbital Inclination(rad): 0.9302898393 Rate of Right Ascen(r/s): -8.194627053e-09 SQRT(A) (m 1/2): 5153.672852 Right Ascen at Week(rad): 0.1717961111 Argument of Perigee(rad): 1.074362169 Mean Anom(rad): -1.707541202 Af0(s): -6.707701416e-05 Af1(s/s): 3.637979e-12 week: 148 ******** Week 148 almanac for PRN-16 ******** ID: 16 Health: 0 Eccentricity: 0.01273536682 Time of Applicability(s): 233472 Orbital Inclination(rad): 0.9703590953 Rate of Right Ascen(r/s): -7.851755628e-09 SQRT(A) (m 1/2): 5153.553223 Right Ascen at Week(rad): 2.481001954 Argument of Perigee(rad): 0.7060607223 Mean Anom(rad): 0.126045209 Af0(s): -0.0003685467407 Af1(s/s): -3.637979e-12 week: 148 ******** Week 148 almanac for PRN-17 ******** ID: 17 Health: 0 Eccentricity: 0.01364040375 Time of Applicability(s): 233472 Orbital Inclination(rad): 0.9801681834 Rate of Right Ascen(r/s): -7.851755628e-09 SQRT(A) (m 1/2): 5153.708984 Right Ascen at Week(rad): -2.783782648 Argument of Perigee(rad): -1.500489748 Mean Anom(rad): -0.800011428 Af0(s): 0.0004522045898 Af1(s/s): 3.637979e-12 week: 148 ******** Week 148 almanac for PRN-18 ******** ID: 18 Health: 0 Eccentricity: 0.002094745636 Time of Applicability(s): 233472 Orbital Inclination(rad): 0.9704310007 Rate of Right Ascen(r/s): -7.840326581e-09 SQRT(A) (m 1/2): 5153.57666 Right Ascen at Week(rad): -1.778030166 Argument of Perigee(rad): 3.10772149 Mean Anom(rad): -2.782001492 Af0(s): 0.000192940625 Af1(s/s): -7.275958e-12 week: 148 ******** Week 148 almanac for PRN-19 ******** ID: 19 Health: 0 Eccentricity: 0.00895690918 Time of Applicability(s): 233472 Orbital Inclination(rad): 0.9789038477 Rate of Right Ascen(r/s): -7.863184676e-09 SQRT(A) (m 1/2): 5153.637695 Right Ascen at Week(rad): -2.738910339 Argument of Perigee(rad): 2.005467161 Mean Anom(rad): 1.608768719 Af0(s): 9.19482666e-05 Af1(s/s): 3.637979e-12 week: 148 ******** Week 148 almanac for PRN-20 ******** ID: 20 Health: 0 Eccentricity: 0.00518989563 Time of Applicability(s): 233472 Orbital Inclination(rad): 0.9416628688 Rate of Right Ascen(r/s): -8.091765626e-09 SQRT(A) (m 1/2): 5153.687988 Right Ascen at Week(rad): -0.9046827719 Argument of Perigee(rad): 3.125865232 Mean Anom(rad): -1.953230921 Af0(s): 0.0004084914795 Af1(s/s): 0 week: 148 ******** Week 148 almanac for PRN-21 ******** ID: 21 Health: 0 Eccentricity: 0.02458000183 Time of Applicability(s): 233472 Orbital Inclination(rad): 0.9592377346 Rate of Right Ascen(r/s): -7.897471818e-09 SQRT(A) (m 1/2): 5153.537598 Right Ascen at Week(rad): -1.876690672 Argument of Perigee(rad): -1.00951815 Mean Anom(rad): -0.6197016486 Af0(s): 0.0001243562622 Af1(s/s): 0 week: 148 ******** Week 148 almanac for PRN-22 ******** ID: 22 Health: 0 Eccentricity: 0.01286649704 Time of Applicability(s): 233472 Orbital Inclination(rad): 0.9615446979 Rate of Right Ascen(r/s): -7.840326581e-09 SQRT(A) (m 1/2): 5153.599121 Right Ascen at Week(rad): 0.3788112377 Argument of Perigee(rad): -1.874131666 Mean Anom(rad): -0.9294466746 Af0(s): 0.0001665620239 Af1(s/s): 7.275958e-12 week: 148 ******** Week 148 almanac for PRN-23 ******** ID: 23 Health: 0 Eccentricity: 0.001973152161 Time of Applicability(s): 233472 Orbital Inclination(rad): 0.9673989918 Rate of Right Ascen(r/s): -7.806039438e-09 SQRT(A) (m 1/2): 5153.651367 Right Ascen at Week(rad): -0.7780735553 Argument of Perigee(rad): 2.952517164 Mean Anom(rad): 2.601031083 Af0(s): 2.261022949e-06 Af1(s/s): -3.637979e-12 week: 148 ******** Week 148 almanac for PRN-24 ******** ID: 24 Health: 0 Eccentricity: 0.01233100891 Time of Applicability(s): 233472 Orbital Inclination(rad): 0.9341966967 Rate of Right Ascen(r/s): -8.046049436e-09 SQRT(A) (m 1/2): 5153.638672 Right Ascen at Week(rad): 1.266821706 Argument of Perigee(rad): 0.8069338159 Mean Anom(rad): -2.682059423 Af0(s): 0.0002178118774 Af1(s/s): 0 week: 148 ******** Week 148 almanac for PRN-25 ******** ID: 25 Health: 0 Eccentricity: 0.0104765892 Time of Applicability(s): 233472 Orbital Inclination(rad): 0.9577756592 Rate of Right Ascen(r/s): -7.966046103e-09 SQRT(A) (m 1/2): 5153.664062 Right Ascen at Week(rad): 2.385745343 Argument of Perigee(rad): 0.9794838097 Mean Anom(rad): 1.73057713 Af0(s): 0.0002230875977 Af1(s/s): 7.275958e-12 week: 148 ******** Week 148 almanac for PRN-26 ******** ID: 26 Health: 0 Eccentricity: 0.006856918335 Time of Applicability(s): 233472 Orbital Inclination(rad): 0.9385949072 Rate of Right Ascen(r/s): -8.137481816e-09 SQRT(A) (m 1/2): 5153.642578 Right Ascen at Week(rad): 2.338877286 Argument of Perigee(rad): 0.3660045954 Mean Anom(rad): 1.078998566 Af0(s): 0.0001431981201 Af1(s/s): 3.637979e-12 week: 148 ******** Week 148 almanac for PRN-27 ******** ID: 27 Health: 0 Eccentricity: 0.01018428802 Time of Applicability(s): 233472 Orbital Inclination(rad): 0.9737626152 Rate of Right Ascen(r/s): -7.931758961e-09 SQRT(A) (m 1/2): 5153.603027 Right Ascen at Week(rad): -2.84617814 Argument of Perigee(rad): 0.636081088 Mean Anom(rad): -0.7566442631 Af0(s): 8.667254639e-05 Af1(s/s): 1.818989e-11 week: 148 ******** Week 148 almanac for PRN-29 ******** ID: 29 Health: 0 Eccentricity: 0.001812934875 Time of Applicability(s): 233472 Orbital Inclination(rad): 0.982169549 Rate of Right Ascen(r/s): -7.840326581e-09 SQRT(A) (m 1/2): 5153.709473 Right Ascen at Week(rad): -2.770789126 Argument of Perigee(rad): 2.264267996 Mean Anom(rad): -0.6365050299 Af0(s): -0.0003775908325 Af1(s/s): -3.637979e-12 week: 148 ******** Week 148 almanac for PRN-30 ******** ID: 30 Health: 0 Eccentricity: 0.005491256714 Time of Applicability(s): 233472 Orbital Inclination(rad): 0.9358445276 Rate of Right Ascen(r/s): -8.046049436e-09 SQRT(A) (m 1/2): 5153.524902 Right Ascen at Week(rad): 1.362724717 Argument of Perigee(rad): -2.747917982 Mean Anom(rad): 2.669258024 Af0(s): -0.0004047231079 Af1(s/s): -3.637979e-12 week: 148 ******** Week 148 almanac for PRN-31 ******** ID: 31 Health: 0 Eccentricity: 0.01045751572 Time of Applicability(s): 233472 Orbital Inclination(rad): 0.9549054373 Rate of Right Ascen(r/s): -7.840326581e-09 SQRT(A) (m 1/2): 5153.633301 Right Ascen at Week(rad): 1.367554734 Argument of Perigee(rad): 0.3747148798 Mean Anom(rad): 2.182464051 Af0(s): -0.0001296319824 Af1(s/s): 0 week: 148 ******** Week 148 almanac for PRN-32 ******** ID: 32 Health: 0 Eccentricity: 0.005547523498 Time of Applicability(s): 233472 Orbital Inclination(rad): 0.9582789966 Rate of Right Ascen(r/s): -7.886042771e-09 SQRT(A) (m 1/2): 5153.71582 Right Ascen at Week(rad): 0.2887984734 Argument of Perigee(rad): -2.358524674 Mean Anom(rad): -0.1037867583 Af0(s): -5.04961792e-05 Af1(s/s): -7.275958e-12 week: 148